Wind_Speed
32 32 31 31 33 34 32 31 31 31 29 26 24 23 23 23 24 24 23 23 23 22 21 21 22 22 22 22 22 22 21 21 21 21 22 23 23 22 21 20 19 20
31 31 31 30 32 33 32 31 31 31 29 25 23 23 23 25 25 25 24 23 22 21 21 21 22 22 22 23 23 22 21 21 21 22 23 23 23 22 21 20 20 20
31 30 29 30 32 34 34 31 30 30 29 25 22 23 24 26 26 25 24 23 22 21 21 21 22 23 23 23 23 22 22 21 22 22 23 23 23 22 21 20 20 21
30 28 28 30 34 36 35 32 30 31 29 25 23 23 25 26 26 25 25 24 22 21 20 21 22 23 23 23 23 22 22 22 22 22 23 23 23 22 21 21 20 21
29 29 30 32 35 37 37 33 30 32 30 25 23 23 25 27 27 25 25 24 22 21 21 21 23 23 23 23 23 23 22 22 22 22 23 23 22 22 21 21 21 21
31 30 32 34 36 38 39 34 31 33 31 26 23 24 25 27 27 26 24 24 23 21 21 22 23 23 23 22 23 23 22 22 22 23 23 22 22 22 21 21 21 22
31 31 33 36 37 40 41 36 32 33 32 27 23 24 26 27 27 26 24 24 23 22 22 22 23 23 23 22 23 23 22 22 23 24 23 23 22 21 21 21 22 23
31 33 35 38 40 41 42 38 33 34 34 28 24 25 27 28 27 26 24 23 23 22 22 23 23 23 22 22 23 23 23 23 24 24 24 23 22 21 21 22 22 23
33 36 39 40 42 43 43 38 33 34 34 29 26 27 28 27 27 26 24 22 22 23 23 23 23 22 22 22 22 22 23 24 24 24 24 23 22 21 21 22 22 23
36 39 42 42 43 44 43 38 34 34 34 29 27 29 28 27 28 26 23 22 22 23 23 23 23 23 23 22 22 23 23 24 24 24 24 24 22 21 21 22 22 23
38 42 43 42 43 43 42 37 34 34 34 31 29 30 29 28 28 26 23 21 22 23 23 23 23 23 23 23 23 23 23 24 24 25 25 24 23 21 21 22 22 23
40 42 42 40 40 40 38 35 34 34 34 32 31 31 30 29 28 26 23 21 22 23 23 23 23 24 24 24 24 24 23 24 24 25 25 24 23 22 21 22 22 23
39 40 39 38 38 37 36 34 34 35 34 33 32 32 31 29 28 27 24 21 22 23 23 24 24 25 25 25 25 24 23 24 25 25 25 24 23 22 22 22 23 24
38 39 39 39 37 35 35 35 35 35 35 34 33 33 32 30 28 28 24 21 21 22 23 24 25 26 26 26 25 24 24 24 25 25 25 24 24 23 23 24 24 26
37 39 41 40 36 34 35 35 35 35 36 35 34 33 33 31 29 28 24 21 21 22 24 26 26 26 26 26 25 24 24 24 25 25 25 25 25 25 25 25 26 27
39 42 44 40 35 33 35 36 35 35 36 35 34 34 34 31 30 28 24 22 22 23 25 26 26 26 26 26 25 25 24 25 25 25 25 25 25 26 26 26 27 27
42 45 44 38 34 34 35 35 35 35 35 35 35 34 34 32 30 28 25 23 22 24 26 27 27 27 27 26 26 25 25 25 25 25 25 25 26 27 27 27 27 27
46 46 41 35 34 35 35 34 35 35 35 35 35 35 34 33 31 29 26 24 23 25 26 27 28 27 27 27 27 26 26 26 26 25 25 25 26 27 27 27 27 28
47 43 37 34 35 35 34 35 36 36 35 35 36 36 35 34 32 30 28 25 25 26 27 28 29 28 27 27 28 28 28 27 26 25 25 26 27 28 28 28 28 28
45 39 35 34 35 35 35 35 36 36 35 36 37 36 35 34 33 31 29 27 26 28 29 29 29 28 26 27 27 28 29 29 28 26 26 27 28 28 28 28 28 28
41 36 35 35 36 36 35 34 35 36 36 37 37 36 35 35 34 32 30 28 28 29 30 30 30 29 27 26 28 29 29 29 28 27 27 28 29 29 29 29 28 27
37 35 36 36 36 36 35 34 35 35 36 37 38 37 36 35 35 34 31 30 30 31 32 32 32 30 28 29 31 31 30 29 28 27 28 30 30 29 29 28 27 26
37 37 37 37 37 36 35 35 35 36 37 38 38 37 36 36 36 35 33 31 31 33 34 33 32 32 32 32 34 33 32 31 29 28 29 30 30 29 28 27 26 26
39 38 37 37 37 37 36 36 37 37 38 38 38 38 37 37 37 36 35 33 32 34 36 34 33 34 34 35 35 33 32 32 31 30 30 30 29 28 27 26 26 27
41 40 39 39 38 37 37 38 39 39 39 39 39 39 38 39 38 37 36 34 33 36 39 37 35 35 35 36 37 35 34 33 31 30 29 28 27 26 25 25 26 27
43 42 40 40 39 40 40 41 40 40 40 40 40 40 40 40 39 37 37 36 35 36 38 38 37 37 37 37 36 35 35 34 30 28 28 27 26 25 25 25 27 28
Wind_Direction
262 268 272 272 273 274 273 269 268 272 275 276 277 279 282 284 281 276 269 267 271 277 280 281 281 281 282 283 285 286 287 285 282 278 276 275 275 275 275 276 276 277
260 266 268 268 269 270 269 264 264 269 272 273 274 278 280 279 278 276 271 268 269 274 277 279 280 281 281 283 284 286 286 286 283 280 277 275 274 274 274 275 276 277
257 262 264 263 264 266 266 261 262 267 270 270 271 274 276 277 278 277 272 269 269 272 276 278 279 281 281 282 284 285 286 287 286 284 280 276 274 273 274 275 277 277
252 257 259 259 261 264 264 261 261 266 267 266 267 270 273 276 277 276 272 269 269 272 275 277 279 280 280 281 283 285 287 289 289 287 285 280 276 274 275 277 279 280
246 252 255 258 260 263 264 262 261 265 265 263 264 267 271 275 277 276 272 269 269 271 274 277 278 279 279 281 282 285 288 290 291 290 288 284 280 277 276 278 281 283
244 250 255 258 260 262 264 261 260 263 264 261 261 264 269 273 275 274 270 267 268 271 274 276 277 278 279 280 282 285 287 290 291 291 291 288 283 279 277 279 282 284
245 250 254 257 258 260 262 261 260 263 263 260 258 262 267 271 273 272 268 266 268 271 273 275 276 277 278 280 283 286 287 289 291 292 292 290 285 281 279 279 281 283
244 249 252 254 256 258 260 261 260 261 261 258 255 259 265 269 271 270 267 267 269 271 273 275 276 277 279 281 284 286 287 288 290 292 292 290 286 282 280 279 280 283
242 247 249 251 254 256 259 261 260 259 259 256 253 256 262 267 269 268 266 267 270 272 274 275 276 278 280 282 283 284 285 287 289 292 293 291 286 282 280 280 282 286
242 246 248 250 253 254 258 261 260 257 256 253 251 255 260 265 267 266 265 267 270 272 274 276 278 279 280 282 283 283 284 286 289 292 293 291 287 283 282 283 285 288
242 247 249 251 252 254 257 259 257 254 253 251 250 254 259 263 265 265 263 265 269 271 274 277 279 279 280 281 283 283 283 285 288 291 293 292 288 285 284 285 287 289
242 247 249 250 251 253 256 257 254 251 251 249 249 252 257 260 263 263 261 264 268 271 273 276 277 279 280 282 283 283 283 285 287 290 292 292 290 287 285 286 287 290
241 246 249 249 250 253 255 254 251 249 249 248 247 251 255 259 262 261 260 262 266 269 273 275 276 278 280 281 282 283 283 284 286 289 291 291 289 286 285 286 288 290
239 245 249 250 251 253 253 251 249 248 247 246 245 249 254 258 260 259 258 261 265 269 272 274 275 276 278 280 281 282 282 283 284 287 289 289 287 286 285 286 288 291
237 243 248 251 253 252 250 248 248 246 245 244 244 248 253 256 258 257 257 260 264 269 272 273 274 276 277 279 280 281 281 281 283 286 288 288 287 286 285 286 289 293
235 242 247 251 253 250 246 246 246 245 244 243 243 246 251 255 257 257 256 258 262 267 270 273 275 276 277 278 279 280 280 280 282 285 288 288 287 286 286 288 291 295
235 240 245 249 250 246 244 245 245 244 242 242 242 245 250 254 256 255 255 256 260 265 269 272 274 276 277 277 277 277 277 278 281 284 286 287 287 287 288 290 293 296
234 239 243 245 244 242 242 243 244 242 240 240 242 245 249 253 254 253 253 255 258 263 267 271 274 275 276 276 275 274 274 276 279 282 285 285 286 287 290 293 296 298
234 238 239 239 239 239 241 242 242 241 239 240 242 245 248 252 253 252 251 253 257 261 265 269 272 274 275 275 274 273 272 273 276 280 283 284 286 288 291 295 297 299
234 234 233 233 235 237 239 240 241 240 239 239 242 245 248 251 253 251 250 252 255 259 263 267 271 274 276 276 273 271 270 269 271 276 280 282 285 288 292 295 297 298
231 229 229 231 233 236 237 238 239 240 239 240 243 245 248 250 252 251 249 251 254 257 261 265 269 272 274 275 272 268 268 267 268 271 275 279 282 286 291 294 295 297
227 226 229 231 232 235 237 238 238 240 240 241 243 246 247 250 252 251 250 250 253 256 259 263 268 271 272 272 270 268 266 265 265 265 269 274 279 284 289 292 293 296
225 227 231 232 233 236 238 238 239 240 241 242 244 247 249 250 251 251 250 250 253 257 259 262 267 271 270 269 270 270 265 260 259 261 264 270 277 284 288 289 291 295
227 230 232 233 234 237 238 239 240 241 241 243 245 247 249 249 250 251 251 252 255 257 260 263 266 269 272 272 273 273 265 257 255 257 262 269 277 283 286 287 290 294
229 232 233 233 234 236 239 240 242 242 243 244 245 247 249 249 250 251 253 255 256 257 260 263 265 268 272 275 277 274 263 256 254 256 261 269 275 280 284 287 290 295
231 233 234 234 234 236 239 241 242 244 246 246 247 248 250 251 251 252 254 257 258 258 259 262 266 269 272 277 281 278 267 258 254 255 261 268 272 276 281 285 291 296
Height
5816 5816 5817 5817 5816 5817 5817 5818 5818 5818 5818 5817 5817 5817 5816 5816 5816 5815 5815 5815 5815 5815 5814 5814 5814 5814 5814 5813 5813 5812 5812 5811 5811 5811 5810 5810 5809 5808 5807 5807 5806 5806
5813 5813 5813 5814 5813 5813 5814 5814 5814 5815 5815 5815 5814 5814 5813 5813 5812 5812 5812 5812 5812 5812 5812 5812 5812 5811 5811 5811 5810 5810 5810 5809 5809 5808 5808 5807 5807 5806 5805 5804 5804 5803
5809 5809 5810 5811 5810 5810 5810 5811 5812 5811 5811 5812 5812 5811 5810 5810 5810 5809 5809 5810 5810 5810 5809 5809 5809 5809 5809 5809 5808 5808 5808 5807 5807 5806 5806 5805 5804 5804 5803 5802 5801 5800
5805 5805 5806 5807 5806 5806 5807 5808 5809 5808 5808 5808 5808 5808 5807 5807 5807 5807 5807 5807 5807 5807 5807 5807 5806 5806 5807 5807 5806 5806 5805 5805 5804 5804 5803 5802 5802 5801 5800 5799 5799 5798
5801 5802 5803 5803 5803 5803 5803 5805 5805 5805 5805 5805 5805 5805 5804 5804 5804 5804 5804 5804 5805 5804 5804 5804 5804 5804 5804 5804 5804 5804 5803 5802 5802 5801 5801 5800 5799 5798 5797 5797 5796 5796
5796 5798 5799 5799 5799 5799 5799 5801 5802 5802 5802 5802 5802 5801 5801 5801 5800 5800 5801 5801 5802 5802 5802 5801 5801 5802 5802 5802 5802 5801 5801 5800 5800 5799 5798 5797 5796 5795 5795 5794 5794 5793
5792 5794 5795 5795 5795 5795 5796 5797 5798 5798 5798 5799 5799 5798 5798 5797 5797 5797 5798 5798 5799 5799 5799 5798 5799 5799 5799 5799 5799 5799 5798 5798 5797 5796 5796 5795 5794 5793 5792 5791 5791 5791
5788 5789 5790 5790 5791 5791 5792 5793 5795 5795 5795 5795 5795 5795 5795 5794 5794 5794 5795 5795 5796 5796 5796 5795 5796 5796 5796 5796 5796 5796 5796 5795 5794 5794 5793 5792 5791 5790 5789 5789 5788 5788
5783 5784 5785 5786 5787 5787 5788 5789 5791 5791 5791 5792 5792 5791 5791 5791 5791 5791 5792 5792 5792 5793 5792 5792 5793 5793 5794 5794 5793 5793 5793 5792 5792 5791 5791 5790 5789 5788 5787 5786 5786 5785
5779 5779 5780 5781 5782 5783 5784 5785 5787 5787 5787 5788 5788 5787 5788 5788 5788 5788 5789 5789 5789 5789 5789 5790 5790 5790 5790 5791 5791 5791 5790 5790 5790 5789 5788 5787 5786 5785 5784 5784 5783 5783
5774 5775 5775 5777 5778 5779 5780 5781 5782 5783 5783 5784 5784 5784 5784 5785 5785 5785 5785 5786 5786 5786 5786 5787 5787 5787 5787 5788 5788 5788 5788 5788 5787 5787 5786 5785 5784 5783 5782 5781 5781 5780
5770 5770 5771 5773 5774 5775 5776 5777 5778 5779 5779 5780 5780 5780 5780 5781 5781 5782 5782 5782 5783 5783 5784 5784 5784 5784 5784 5785 5785 5785 5786 5785 5785 5784 5783 5782 5781 5780 5779 5779 5778 5778
5765 5766 5767 5768 5769 5770 5771 5772 5773 5774 5775 5775 5776 5776 5777 5777 5778 5778 5778 5779 5780 5780 5780 5781 5781 5781 5781 5782 5782 5783 5783 5782 5782 5781 5780 5779 5778 5777 5777 5776 5776 5775
5761 5762 5762 5763 5764 5766 5767 5768 5769 5770 5771 5771 5772 5772 5773 5774 5774 5774 5775 5776 5776 5777 5777 5777 5777 5778 5778 5779 5779 5780 5780 5779 5779 5778 5777 5776 5775 5774 5774 5773 5773 5772
5756 5757 5757 5758 5760 5761 5763 5764 5765 5766 5766 5767 5768 5769 5769 5770 5770 5771 5771 5772 5773 5773 5774 5774 5774 5774 5775 5776 5776 5777 5777 5776 5775 5775 5774 5773 5772 5771 5771 5770 5770 5769
5751 5751 5752 5753 5755 5757 5759 5760 5760 5761 5762 5763 5764 5765 5765 5766 5767 5767 5768 5769 5769 5770 5770 5770 5771 5771 5772 5773 5773 5773 5773 5773 5772 5772 5771 5770 5769 5768 5768 5767 5767 5766
5745 5746 5747 5750 5752 5753 5754 5755 5756 5757 5758 5759 5760 5761 5761 5762 5763 5764 5765 5765 5766 5767 5767 5767 5768 5768 5769 5769 5770 5770 5770 5769 5769 5769 5768 5767 5766 5765 5765 5764 5763 5762
5740 5741 5743 5746 5747 5748 5750 5751 5752 5752 5753 5755 5756 5757 5758 5758 5759 5760 5761 5762 5763 5763 5764 5764 5764 5765 5765 5766 5766 5766 5766 5766 5766 5765 5765 5764 5763 5762 5762 5761 5760 5759
5734 5736 5739 5741 5742 5744 5746 5746 5747 5748 5750 5751 5752 5753 5753 5754 5755 5756 5757 5758 5759 5760 5760 5760 5761 5761 5762 5762 5762 5763 5763 5763 5763 5762 5761 5761 5760 5759 5758 5757 5757 5755
5729 5732 5735 5736 5738 5739 5740 5741 5742 5744 5745 5747 5747 5748 5750 5750 5751 5752 5753 5755 5756 5756 5756 5757 5757 5758 5758 5759 5759 5759 5759 5759 5759 5759 5758 5757 5756 5755 5755 5754 5753 5752
5725 5729 5731 5732 5733 5735 5736 5737 5738 5739 5741 5742 5743 5744 5746 5746 5747 5748 5749 5751 5751 5751 5752 5753 5753 5754 5755 5755 5755 5755 5755 5755 5755 5755 5754 5753 5752 5752 5751 5750 5750 5749
5722 5725 5726 5728 5729 5730 5732 5733 5734 5735 5736 5737 5738 5740 5741 5742 5742 5744 5745 5746 5747 5747 5748 5749 5750 5751 5752 5751 5751 5751 5751 5751 5751 5751 5750 5749 5749 5748 5748 5747 5746 5746
5718 5720 5722 5724 5726 5727 5728 5729 5730 5731 5731 5732 5733 5735 5737 5738 5738 5739 5741 5742 5743 5742 5743 5745 5746 5747 5747 5746 5746 5746 5746 5747 5747 5747 5746 5745 5745 5745 5744 5744 5743 5742
5714 5716 5718 5720 5722 5723 5724 5725 5726 5726 5727 5728 5729 5731 5732 5733 5734 5734 5736 5738 5738 5738 5739 5740 5742 5742 5741 5741 5741 5742 5742 5742 5742 5742 5742 5742 5742 5741 5741 5740 5739 5738
5710 5712 5714 5716 5718 5719 5720 5721 5722 5722 5723 5724 5725 5726 5728 5728 5729 5730 5732 5733 5734 5734 5734 5735 5737 5738 5737 5738 5738 5738 5737 5738 5738 5738 5738 5738 5738 5738 5737 5736 5735 5734
5705 5707 5709 5712 5713 5715 5715 5716 5717 5719 5720 5720 5721 5722 5723 5724 5725 5727 5728 5729 5729 5730 5730 5730 5732 5733 5733 5734 5733 5733 5733 5734 5734 5734 5734 5734 5734 5734 5733 5732 5732 5731